Location: Rancho Santa Fe Post Office
(33.0184°N, 117.2026°W)
Time: 05:06:31
(UTC+00:00)

Cosmos 1867 - Pass Details

Date: 10 September 2024
Orbit: 772 x 802 km, 65.0° (Epoch: 09 October)

Event Time Altitude Azimuth Distance (km) Brightness Sun altitude
Exits shadow 12:03:55 29° 224° (SW) 1,419 4.4 -18.4°
Maximum altitude 12:06:42 67° 299° (WNW) 857 3.5 -17.8°
Drops below altitude 10° 12:12:08 10° 22° (NNE) 2,374 6.6 -16.7°
Sets 12:14:36 0° 26° (NNE) 3,310 7.4 -16.2°
